Location: Atherton
(17.2661°S, 145.4859°E)
Time: 23:40:03
(UTC+10:00)

Transit 2A - Pass Details

Date: 19 June 2025
Orbit: 598 x 948 km, 66.7° (Epoch: 19 July)

Event Time Altitude Azimuth Distance (km) Brightness Sun altitude
Rises 09:48:38 0° 13° (NNE) 3,327 10.1 35.1°
Reaches altitude 10° 09:51:38 10° 30° (NNE) 2,464 9.9 35.6°
Maximum altitude 09:55:41 20° 75° (ENE) 1,936 9.2 36.3°
Drops below altitude 10° 09:59:57 10° 120° (ESE) 2,615 9.0 36.9°
Sets 10:03:13 0° 136° (SE) 3,599 9.4 37.4°
